Change the Weather History Date:

Friday, October 11, 2013

  Actual Average Record
Temperature  
Mean Temperature 56 °F 50 °F  
Max Temperature 62 °F 60 °F 78 °F (1969)
Min Temperature 50 °F 41 °F 23 °F (1964)
Degree Days  
Heating Degree Days 9 15  
Month to date heating degree days 47 143  
Since 1 July heating degree days 250 389  
Cooling Degree Days 0 0  
Month to date cooling degree days 20 0  
Year to date cooling degree days 543 360  
Growing Degree Days 6 (Base 50)    
Moisture  
Dew Point 44 °F    
Average Humidity 67    
Maximum Humidity 89    
Minimum Humidity 44    
Precipitation  
Precipitation 0.20 in 0.10 in 1.52 in (1990)
Month to date precipitation 1.29 1.15  
Sea Level Pressure  
Sea Level Pressure 30.10 in    
Wind  
Wind Speed 6 mph (ENE)    
Max Wind Speed 10 mph    
Max Gust Speed 15 mph    
Visibility 10 miles    
Events Rain    
T = Trace of Precipitation, MM = Missing Value Source: NWS Daily Summary

Daily Weather History Graph

Daily Weather History Graph

Search for Another Location

Airport or City:

Trip Planner

Search our weather history database for the weather conditions in past years. The results will help you decide how hot, cold, wet, or windy it might be!

Date:

Astronomy

Oct. 11, 2013 Rise Set
Actual Time 7:23 AM EDT 6:40 PM EDT
Civil Twilight 6:55 AM EDT 7:08 PM EDT
Nautical Twilight 6:23 AM EDT 7:40 PM EDT
Astronomical Twilight 5:51 AM EDT 8:12 PM EDT
Moon 2:05 PM EDT (10/11) No Moon Set
Length of Visible Light 12h 12m
Length of Day
11h 17m
Waxing Crescent, 47% of the Moon is Illuminated
Oct 11
Waxing Crescent
Oct 11
First Quarter
Oct 18
Full
Oct 26
Last Quarter
Nov 3
New

Hourly Weather History & Observations

Time (EDT) Temp. Dew Point Humidity Pressure Visibility Wind Dir Wind Speed Gust Speed Precip Events Conditions
12:56 AM 52.0 °F 46.0 °F 80% 30.09 in 10.0 mi NE 3.5 mph - N/A   Overcast
1:56 AM 52.0 °F 44.1 °F 74% 30.08 in 10.0 mi NE 4.6 mph - N/A   Mostly Cloudy
2:56 AM 51.1 °F 46.0 °F 83% 30.09 in 10.0 mi East 3.5 mph - N/A   Clear
3:56 AM 52.0 °F 42.1 °F 69% 30.09 in 10.0 mi ENE 9.2 mph - N/A   Overcast
4:56 AM 50.0 °F 45.0 °F 83% 30.09 in 9.0 mi East 4.6 mph - 0.03 in Rain Light Rain
5:56 AM 50.0 °F 46.0 °F 86% 30.10 in 7.0 mi NE 6.9 mph - 0.02 in Rain Light Rain
6:56 AM 50.0 °F 46.0 °F 86% 30.11 in 10.0 mi ENE 6.9 mph - 0.03 in   Mostly Cloudy
7:56 AM 50.0 °F 46.9 °F 89% 30.11 in 4.0 mi ENE 8.1 mph - 0.04 in Rain Light Rain
8:56 AM 51.1 °F 48.0 °F 89% 30.12 in 8.0 mi East 5.8 mph - 0.05 in Rain Light Rain
9:56 AM 52.0 °F 46.9 °F 83% 30.13 in 10.0 mi East 6.9 mph - 0.02 in   Overcast
10:56 AM 54.0 °F 46.9 °F 77% 30.13 in 10.0 mi East 6.9 mph - N/A   Overcast
11:56 AM 55.9 °F 48.0 °F 75% 30.13 in 10.0 mi ENE 6.9 mph - N/A   Overcast
12:56 PM 55.9 °F 46.0 °F 69% 30.12 in 10.0 mi NE 8.1 mph - 0.01 in   Overcast
1:56 PM 57.9 °F 46.0 °F 65% 30.09 in 10.0 mi North 6.9 mph - 0.00 in   Overcast
2:56 PM 60.1 °F 48.0 °F 64% 30.09 in 10.0 mi ENE 4.6 mph - N/A   Scattered Clouds
3:56 PM 62.1 °F 48.9 °F 62% 30.08 in 10.0 mi NE 5.8 mph - N/A   Overcast
4:56 PM 62.1 °F 43.0 °F 50% 30.09 in 10.0 mi NE 5.8 mph - N/A   Overcast
5:56 PM 61.0 °F 44.1 °F 54% 30.10 in 10.0 mi NE 4.6 mph - N/A   Overcast
6:56 PM 59.0 °F 42.1 °F 53% 30.10 in 10.0 mi NNE 5.8 mph - N/A   Overcast
7:56 PM 59.0 °F 37.0 °F 44% 30.11 in 10.0 mi NE 5.8 mph - N/A   Overcast
8:56 PM 55.9 °F 37.9 °F 51% 30.11 in 10.0 mi East 3.5 mph - N/A   Scattered Clouds
9:56 PM 54.0 °F 37.9 °F 55% 30.11 in 10.0 mi East 4.6 mph - N/A   Clear
10:56 PM 54.0 °F 37.0 °F 53% 30.12 in 10.0 mi East 4.6 mph - N/A   Clear
11:56 PM 54.0 °F 35.1 °F 49% 30.11 in 10.0 mi East 3.5 mph - N/A   Clear